Date String (YYYY-MM-DD hh:mm:ss) UTC,Instrument flags,Ambient pressure (hPa),Sample flow (lpm),Bypass flow (lpm),Sample temperature (°C),Ambient temperature (°C),ASC tube jacket temperature (°C),LED temperature (°C),Box temperature (°C),Sample RH (%),Span deviation,Mass concentration (μg/m³),Mass concentration (μg/m³),Mass concentration (μg/m³)
DateTimeUTC,F1_M11,P_M11,Q1_M11,Q2_M11,T1_M11,T2_M11,T3_M11,T4_M11,T5_M11,U1_M11,ZSPAN_M11,X0_M11,X2_M11,X1_M11
2022-12-02 02:00:00,,0812.8,4.99,0.00,26.0,24.3,00.0,35.1,27.8,08.2,0000.0,0011.99,0007.06,0006.63
2022-12-02 02:01:00,,0812.9,4.98,0.00,26.0,24.2,00.0,35.1,27.8,07.7,0000.0,0011.16,0006.98,0006.57
2022-12-02 02:02:00,,0812.9,5.00,0.00,26.0,24.2,00.0,35.1,27.8,07.9,0000.0,0011.02,0006.90,0006.48
2022-12-02 02:03:00,,0812.9,5.00,0.00,25.9,24.1,00.0,35.0,27.7,08.0,0000.0,0011.50,0006.94,0006.51
2022-12-02 02:04:00,,0812.9,4.99,0.00,25.9,24.0,00.0,35.0,27.7,08.1,0000.0,0012.78,0006.78,0006.35
2022-12-02 02:05:00,,0813.1,4.99,0.00,25.9,24.0,00.0,35.0,27.7,07.9,0000.0,0013.00,0006.56,0006.16
2022-12-02 02:06:00,,0812.9,5.00,0.00,25.9,24.1,00.0,35.0,27.7,07.9,0000.0,0013.02,0006.47,0006.04
2022-12-02 02:07:00,,0812.7,5.00,0.00,25.9,24.1,00.0,35.0,27.7,07.9,0000.0,0013.73,0006.38,0005.92
2022-12-02 02:08:00,,0812.7,5.00,0.00,25.9,24.1,00.0,34.9,27.7,08.2,0000.0,0013.50,0006.23,0005.73
2022-12-02 02:09:00,,0812.7,5.01,0.00,25.8,24.1,00.0,34.9,27.7,08.2,0000.0,0012.75,0006.05,0005.54
2022-12-02 02:10:00,,0812.7,4.98,0.00,25.8,24.0,00.0,34.9,27.6,08.0,0000.0,0012.32,0005.81,0005.31
2022-12-02 02:11:00,,0812.8,5.02,0.00,25.8,24.1,00.0,34.9,27.6,08.1,0000.0,0012.22,0005.62,0005.14
2022-12-02 02:12:00,,0812.7,4.99,0.00,25.8,24.1,00.0,34.9,27.6,08.0,0000.0,0012.12,0005.57,0005.11
2022-12-02 02:13:00,,0812.7,5.00,0.00,25.8,24.1,00.0,34.9,27.6,07.6,0000.0,0012.11,0005.52,0005.05
2022-12-02 02:14:00,,0812.8,5.01,0.00,25.8,24.1,00.0,34.9,27.6,07.6,0000.0,0011.77,0005.42,0004.94
2022-12-02 02:15:00,,0812.7,4.99,0.00,25.8,24.1,00.0,34.8,27.6,07.8,0000.0,0010.44,0005.38,0004.88
2022-12-02 02:16:00,,0812.5,4.99,0.00,25.8,24.2,00.0,34.8,27.6,07.4,0000.0,0010.51,0005.29,0004.78
2022-12-02 02:17:00,,0812.5,5.02,0.00,25.8,24.2,00.0,34.8,27.6,07.4,0000.0,0010.13,0005.09,0004.61
2022-12-02 02:18:00,,0812.7,4.99,0.00,25.8,24.1,00.0,34.8,27.6,07.7,0000.0,0009.48,0004.97,0004.52
2022-12-02 02:19:00,,0812.5,4.98,0.00,25.7,24.0,00.0,34.8,27.6,07.8,0000.0,0009.40,0004.83,0004.42
2022-12-02 02:20:00,,0812.7,5.02,0.00,25.7,24.0,00.0,34.8,27.5,07.9,0000.0,0009.18,0004.68,0004.30
2022-12-02 02:21:00,,0812.7,4.99,0.00,25.7,24.0,00.0,34.8,27.5,08.1,0000.0,0008.90,0004.57,0004.20
2022-12-02 02:22:00,,0812.7,5.01,0.00,25.7,23.9,00.0,34.8,27.5,07.9,0000.0,0009.27,0004.46,0004.11
2022-12-02 02:23:00,,0812.7,4.99,0.00,25.7,23.8,00.0,34.7,27.4,07.9,0000.0,0009.24,0004.31,0003.94
2022-12-02 02:24:00,,0812.7,5.00,0.00,25.6,23.8,00.0,34.7,27.4,08.1,0000.0,0009.14,0004.25,0003.90
2022-12-02 02:25:00,,0812.7,5.01,0.00,25.6,23.8,00.0,34.7,27.4,08.1,0000.0,0008.91,0004.14,0003.83
2022-12-02 02:26:00,,0812.8,4.98,0.00,25.6,23.9,00.0,34.7,27.4,08.0,0000.0,0008.72,0003.99,0003.71
2022-12-02 02:27:00,,0812.8,5.00,0.00,25.6,23.9,00.0,34.7,27.4,08.0,0000.0,0008.11,0003.91,0003.64
2022-12-02 02:28:00,,0812.2,5.01,0.00,25.6,23.7,00.0,34.7,27.3,07.5,0000.0,0008.04,0003.86,0003.60
2022-12-02 02:29:00,,0812.5,5.00,0.00,25.5,23.7,00.0,34.6,27.3,07.1,0000.0,0007.74,0003.72,0003.47
2022-12-02 02:30:00,,0812.7,5.01,0.00,25.5,23.8,00.0,34.6,27.3,07.4,0000.0,0007.45,0003.54,0003.28
2022-12-02 02:31:00,,0812.8,4.98,0.00,25.5,23.7,00.0,34.6,27.3,07.5,0000.0,0007.06,0003.34,0003.08
2022-12-02 02:32:00,,0812.6,5.00,0.00,25.5,23.7,00.0,34.6,27.3,07.5,0000.0,0006.52,0003.14,0002.78
2022-12-02 02:33:00,,0812.5,5.02,0.00,25.5,23.8,00.0,34.6,27.3,07.7,0000.0,0005.16,0002.91,0002.54
2022-12-02 02:34:00,,0812.6,4.98,0.00,25.5,23.8,00.0,34.6,27.3,07.8,0000.0,0004.77,0002.68,0002.34
2022-12-02 02:35:00,,0812.8,5.00,0.00,25.5,23.7,00.0,34.5,27.3,07.3,0000.0,0004.78,0002.44,0002.08
2022-12-02 02:36:00,,0812.4,5.02,0.00,25.5,23.8,00.0,34.5,27.3,07.2,0000.0,0004.46,0002.17,0001.81
2022-12-02 02:37:00,,0812.4,4.98,0.00,25.4,23.6,00.0,34.5,27.2,07.0,0000.0,0004.33,0001.89,0001.55
2022-12-02 02:38:00,,0812.6,5.00,0.00,25.4,23.6,00.0,34.5,27.2,07.1,0000.0,0004.24,0001.62,0001.29
2022-12-02 02:39:00,,0812.5,5.00,0.00,25.4,23.7,00.0,34.5,27.2,07.4,0000.0,0004.29,0001.42,0001.10
2022-12-02 02:40:00,,0812.5,5.00,0.00,25.4,23.7,00.0,34.5,27.2,07.9,0000.0,0004.03,0001.32,0001.03
2022-12-02 02:41:00,,0812.6,5.01,0.00,25.4,23.7,00.0,34.4,27.2,07.6,0000.0,0003.55,0001.25,0001.00
2022-12-02 02:42:00,,0812.6,4.99,0.00,25.4,23.6,00.0,34.4,27.1,07.9,0000.0,0003.54,0001.23,0000.97
2022-12-02 02:43:00,,0812.5,5.02,0.00,25.3,23.6,00.0,34.4,27.1,07.9,0000.0,0003.59,0001.29,0001.02
2022-12-02 02:44:00,,0812.5,4.99,0.00,25.3,23.6,00.0,34.4,27.1,08.1,0000.0,0003.68,0001.33,0001.04
2022-12-02 02:45:00,,0812.5,5.01,0.00,25.3,23.7,00.0,34.4,27.2,08.6,0000.0,0003.47,0001.32,0001.04
2022-12-02 02:46:00,,0812.5,5.01,0.00,25.3,23.8,00.0,34.4,27.2,08.7,0000.0,0003.27,0001.35,0001.09
2022-12-02 02:47:00,,0812.5,4.99,0.00,25.3,23.8,00.0,34.4,27.2,08.6,0000.0,0003.35,0001.42,0001.15
2022-12-02 02:48:00,,0812.4,5.00,0.00,25.3,23.8,00.0,34.4,27.2,08.0,0000.0,0002.91,0001.45,0001.21
2022-12-02 02:49:00,,0812.2,5.00,0.00,25.3,23.8,00.0,34.4,27.2,07.5,0000.0,0002.23,0001.44,0001.23
2022-12-02 02:50:00,,0812.2,5.00,0.00,25.3,23.8,00.0,34.3,27.2,07.5,0000.0,0002.05,0001.42,0001.21
2022-12-02 02:51:00,,0812.3,5.01,0.00,25.3,23.8,00.0,34.3,27.1,07.6,0000.0,0002.01,0001.40,0001.20
2022-12-02 02:52:00,,0812.3,5.00,0.00,25.3,23.8,00.0,34.3,27.1,07.4,0000.0,0001.97,0001.37,0001.18
2022-12-02 02:53:00,,0812.3,5.00,0.00,25.3,23.8,00.0,34.3,27.1,07.4,0000.0,0001.91,0001.31,0001.12
2022-12-02 02:54:00,,0812.3,4.99,0.00,25.3,23.9,00.0,34.3,27.1,07.3,0000.0,0001.75,0001.17,0000.98
2022-12-02 02:55:00,,0812.4,4.99,0.00,25.3,23.9,00.0,34.3,27.2,07.5,0000.0,0001.56,0001.02,0000.84
2022-12-02 02:56:00,,0812.4,5.00,0.00,25.3,23.9,00.0,34.3,27.2,07.4,0000.0,0001.35,0000.88,0000.71
2022-12-02 02:57:00,,0812.4,5.02,0.00,25.3,23.9,00.0,34.3,27.2,07.3,0000.0,0001.12,0000.70,0000.56
2022-12-02 02:58:00,,0812.4,4.99,0.00,25.3,23.9,00.0,34.3,27.2,07.1,0000.0,0000.98,0000.57,0000.44
2022-12-02 02:59:00,,0812.4,4.99,0.00,25.3,23.9,00.0,34.3,27.2,07.2,0000.0,0000.90,0000.48,0000.35
